Preview of NWS' New Version of Forecast
This preview is not operational and should not be used for support decisions.
Latest weather observations around

Columbus - John Glenn Columbus International Airport (KCMH)

Using English Units (Switch to International System of Units)
Date/ Time (EDT) Wind (mph) Vis. (mi) Weather Sky Cond. Temp (°F) Rel. Humidity Wind Chill (°F) Heat Index (°F) Pressure Precip. (in)
Air Dwpt 6 hour Altimeter (inHg) Sea level (inHg) 1 hr 3 hr 6 hr
Max Min
Jun 26 17:51 W 7 10 Mostly Cloudy SCT065 SCT140 BKN250 89 60     38%   89 30.09 30.06      
Jun 26 16:51 W 13 10 Partly Cloudy SCT060 SCT140 89 62     41%   90 30.09 30.07      
Jun 26 15:51 W 9 10 Partly Cloudy SCT065 SCT250 88 61     40%   88 30.1 30.08      
Jun 26 14:51 W 9 10 Partly Cloudy SCT060 SCT250 88 62     42%   88 30.1 30.08      
Jun 26 13:51 WSW 8 10 Partly Cloudy FEW046 SCT250 86 63     46%   87 30.11 30.09      
Jun 26 12:51 W 9 10 Mostly Clear FEW250 85 63     48%   86 30.11 30.09      
Jun 26 11:51 WNW 7 10 Partly Cloudy SCT250 82 64     55%   84 30.12 30.1      
Jun 26 10:51 5 10 Partly Cloudy SCT250 80 64     58%   82 30.11 30.08      
Jun 26 09:51 W 8 10 Mostly Clear FEW250 77 63     62%   77 30.11 30.09      
Jun 26 08:51 WSW 7 10 Partly Cloudy SCT150 SCT250 74 63     69%   74 30.11 30.09      
Jun 26 07:51 SSW 7 10 Partly Cloudy FEW055 FEW150 SCT250 69 62     78%     30.1 30.09      
Jun 26 06:51 SSW 7 10 Partly Cloudy FEW150 SCT250 68 61     78%     30.08 30.06      
Jun 26 05:51 SSE 5 10 Mostly Clear FEW060 FEW250 68 61     78%     30.06 30.04      
Jun 26 04:51 SSE 3 10 Mostly Cloudy BKN065 BKN080 68 61     78%     30.06 30.04      
Jun 26 03:51 SSW 6 10 Mostly Clear FEW250 68 61     78%     30.06 30.04      
Jun 26 02:51 S 3 10 Clear CLR 69 60     73%     30.05 30.03      
Jun 26 01:51 SW 7 10 Clear CLR 71 60     68%   71 30.05 30.03      
Jun 26 00:51 SSW 7 10 Clear CLR 72 60     66%   72 30.04 30.02      
Jun 25 23:51 S 5 10 Mostly Clear FEW100 72 60     66%   72 30.03 30.01      
Jun 25 22:51 SW 8 10 Clear CLR 75 59     57%   75 30.02 30.01      
Jun 25 21:51 SW 8 10 Mostly Clear FEW250 77 58     52%   77 30 29.98      
Jun 25 20:51 SW 13 10 Mostly Clear FEW060 FEW250 79 56     45%   79 29.99 29.96      
Jun 25 19:51 WSW 15 10 Mostly Clear FEW070 FEW250 81 55     41%   81 29.98 29.96      
Jun 25 18:51 WSW 11 10 Partly Cloudy SCT065 SCT250 82 55     40%   81 29.96 29.94      
Jun 25 17:51 W 13 10 Partly Cloudy SCT070 SCT250 84 56     38%   83 29.97 29.95      
Jun 25 16:51 W 11 10 Partly Cloudy SCT065 83 55     38%   82 29.97 29.95      
Jun 25 15:51 W 16 10 Partly Cloudy SCT070 84 56     38%   83 29.98 29.96      
Jun 25 14:51   10 Partly Cloudy SCT060 83 58     43%   83 29.99 29.97      
Jun 25 13:51 NW 14 10 Partly Cloudy SCT055 82 58     44%   82 29.99 29.97      
Jun 25 12:51   10 Partly Cloudy SCT049 SCT060 80 58     47%   80 30 29.98      
Jun 25 11:51 W 14 10 Partly Cloudy SCT042 78 60     54%   78 29.99 29.97      
Jun 25 10:51 WNW 13 10 Partly Cloudy SCT040 SCT250 77 59     54%   77 29.97 29.95      
Jun 25 09:51 WSW 9 10 Partly Cloudy FEW041 SCT250 74 61     64%   74 29.97 29.95      
Jun 25 08:51 W 8 10 Partly Cloudy FEW040 SCT250 71 63     76%   71 29.95 29.93      
Jun 25 07:51 W 9 10 Mostly Clear FEW250 69 63     81%     29.93 29.91      
Jun 25 06:51 WSW 6 10 Mostly Clear FEW250 67 64     90%     29.9 29.89      
Jun 25 05:51 SW 5 10 Mostly Clear FEW040 66 64     93%     29.88 29.86      
Jun 25 04:51 WSW 6 10 Mostly Clear FEW040 67 64     90%     29.85 29.83      
Jun 25 03:51 SW 7 10 Partly Cloudy FEW015 SCT050 68 65     90%     29.84 29.82      
Jun 25 02:51 SW 6 10 Cloudy BKN036 BKN065 OVC090 68 65     90%     29.83 29.81      
Jun 25 01:51 SSW 6 10 Partly Cloudy FEW100 SCT160 68 65     90%     29.82 29.8      
Jun 25 00:51 SW 7 10 Partly Cloudy SCT250 68 65     90%     29.82 29.8      
Jun 24 23:51 SW 7 10 Partly Cloudy SCT250 69 66     90%     29.79 29.77      
Jun 24 22:51 WSW 7 10 Mostly Cloudy BKN250 69 66     90%     29.79 29.77      
Jun 24 21:51 WSW 7 10 Partly Cloudy FEW010 SCT250 70 68     93%     29.77 29.75      
Jun 24 21:11 SW 7 10 Clear   70 68     93%     29.76        
Jun 24 20:51 WSW 8 10 Clear   70 68     93%     29.76 29.74      
Jun 24 20:17 W 6 10 Mostly Cloudy SCT010 SCT070 BKN250 71 68     90%   72 29.74        
Jun 24 19:51 WSW 7 10 Mostly Cloudy BKN010 BKN015 71 68     90%   72 29.73 29.72 0   1
Jun 24 19:34 WSW 6 10 Light Rain BKN010 BKN043 OVC095 71 69     93%   72 29.73   0    
Jun 24 19:16 SW 5 7 Light Rain SCT006 BKN029 OVC120 70 68     93%     29.72   0    
Jun 24 18:51 SW 8 2 Rain and Fog/Mist SCT006 BKN011 OVC038 69 68     96%     29.71 29.69 1    
Jun 24 18:42 SW 11 2 Clear   69 68     96%     29.71   0    
Jun 24 18:32   2 Clear   73 70     90%   74 29.69   0    
Jun 24 17:51 SSE 8 10 Clear   74 69     85%   75 29.68 29.66 0    
Jun 24 16:51 SE 10 10 Light Rain FEW055 SCT075 OVC110 78 68     71%   79 29.7 29.68 0 0  
Jun 24 15:51 W 14 10 Cloudy SCT040 SCT050 OVC085 81 65     58%   83 29.73 29.71      
Jun 24 14:51 SW 13 10 Cloudy SCT032 BKN070 BKN110 OVC160 83 65     55%   85 29.75 29.72      
Jun 24 13:51 SW 11 10 Cloudy FEW030 SCT065 BKN110 OVC250 82 65     56%   84 29.77 29.74      
Jun 24 12:51 S 11 10 Mostly Cloudy FEW027 SCT060 SCT110 BKN250 81 68     65%   84 29.79 29.77      
Jun 24 11:51 SSW 11 10 Cloudy SCT030 BKN055 BKN110 OVC250 78 67     69%   79 29.8 29.78      
Jun 24 10:51 SSW 14 10 Mostly Cloudy SCT029 BKN050 BKN120 BKN250 77 67     71%   78 29.82 29.79      
Jun 24 09:51 SW 11 10 Mostly Cloudy SCT027 BKN050 BKN120 BKN250 74 67     79%   75 29.81 29.79      
Jun 24 08:51 S 10 10 Cloudy SCT025 BKN050 BKN140 OVC250 74 67     79%   75 29.81 29.79      
Jun 24 07:51 S 6 10 Mostly Cloudy FEW025 BKN140 70 66     87%     29.81 29.79     0
Jun 24 06:51 S 6 10 Mostly Cloudy SCT110 BKN150 69 66     90%     29.81 29.79 0    
Jun 24 05:51 S 8 10 Cloudy OVC140 69 66     90%     29.81 29.79      
Jun 24 04:51 S 6 10 Cloudy OVC130 69 65     87%     29.82 29.8 0 0  
Jun 24 03:51 S 9 6 Light Rain and Fog/Mist FEW042 BKN095 OVC120 68 65     90%     29.83 29.8 0    
Jun 24 03:46 S 9 9 Thunderstorms and Rain SCT030 BKN041 OVC075 68 64     88%     29.83   0    
Jun 24 03:20 SSW 8 2.5 Thunderstorms and Heavy Rain and Fog/Mist SCT030 BKN045 OVC075 69 67     93%     29.84   0    
Jun 24 03:00 SW 13 6 Thunderstorms and Rain SCT024 BKN045 OVC075 71 66     84%   72 29.85   0    
Jun 24 02:51 WSW 13 10 Cloudy FEW025 BKN045 OVC080 72 65     79%   73 29.85 29.83      
Jun 24 02:33 S 5 10 Mostly Cloudy SCT045 BKN075 BKN170 71 65     81%   72 29.82        
Jun 24 01:51 SSE 6 10 Mostly Cloudy BKN170 72 65     79%   73 29.83 29.81      
Jun 24 00:51 S 5 10 Mostly Cloudy BKN160 72 66     82%   73 29.85 29.83      
Jun 23 23:51 S 8 10 Cloudy OVC150 73 66     79%   74 29.86 29.84      
Jun 23 22:51 S 7 10 Cloudy SCT110 OVC150 76 64     67%   76 29.87 29.85      
Jun 23 21:51 SSE 9 10 Mostly Cloudy BKN150 77 62     60%   77 29.86 29.84      
Jun 23 20:51 SSE 8 10 Mostly Cloudy SCT050 BKN250 79 60     52%   79 29.9 29.88      
Jun 23 19:51 S 10 10 Mostly Cloudy SCT060 BKN250 80 59     49%   81 29.92 29.91      
Jun 23 18:51 S 8 10 Mostly Cloudy FEW100 BKN250 82 58     44%   82 29.92 29.91      
Jun 23 17:51 SSW 6 10 Mostly Cloudy FEW050 BKN250 81 57     44%   81 29.94 29.92      
Jun 23 16:51 S 8 10 Mostly Cloudy BKN250 81 56     42%   81 29.95 29.93      
Jun 23 15:51 SSW 6 10 Mostly Cloudy BKN250 80 53     39%   80 29.98 29.96      
May 12 15:23 N 17 10 Cloudy BKN060 OVC080 81 59     47%   81 29.99        
May 12 02:51 Calm 10 Partly Cloudy SCT200 62 50     65%     29.97 29.95      
May 12 01:51 Calm 10 Partly Cloudy SCT200 63 49     60%     29.98 29.96      
May 11 22:51 7 10 Mostly Cloudy BKN160 BKN200 65 48     54%     29.98 29.97      
Jun 12 07:51 S 3 10 Partly Cloudy SCT060 SCT250 73 64     73%   73 30.13 30.11      
Jun 11 23:51 S 6 10 Mostly Clear FEW250 76 62     62%   76 30.06 30.04      
Jun 11 15:51 WSW 14 10 Mostly Cloudy BKN070 89 59     36%   88 30.09 30.07      
Jun 11 14:51 WSW 14 10 Partly Cloudy SCT070 87 58     37%   86 30.1 30.07      
Jun 11 11:51 WSW 17 10 Mostly Clear FEW050 85 59     42%   85 30.12 30.1      
Jun 10 18:51 S 13 10 Mostly Cloudy BKN250 84 51     32%   82 29.98 29.96      
Jun 10 11:51   10 Mostly Cloudy BKN250 81 56     42%   81 30.03 30.01      
Jun 08 04:51 NNE 3 10 Mostly Clear FEW040 FEW250 52 50     93%     30 29.99      
Jun 06 13:51 NNE 11 10 Partly Cloudy SCT049 SCT060 72 53     51%   71 29.89 29.88      
Jun 06 05:51 NNW 5 10 Partly Cloudy SCT020 56 53     90%     29.89 29.88      
Jun 05 22:51 N 8 10 Mostly Clear FEW110 62 55     78%     29.85 29.84